Location: Rodson Ranch
(38.7188°N, 119.3202°W)
Time: 17:27:46
(UTC+00:00)

Cosmos 1190 Rocket - Pass Details

Date: 29 October 2020
Orbit: 757 x 779 km, 74.1° (Epoch: 22 November)

Event Time Altitude Azimuth Distance (km) Brightness Sun altitude
Rises 13:47:02 0° 210° (SSW) 3,226 7.0 -7.4°
Reaches altitude 10° 13:49:28 10° 216° (SW) 2,300 6.2 -6.9°
Maximum altitude 13:54:33 51° 292° (WNW) 954 4.2 -5.9°
Drops below altitude 10° 13:59:38 10° 8° (N) 2,301 6.4 -5.0°
Sets 14:02:04 0° 14° (NNE) 3,228 7.2 -4.5°
